SCOUT B DEB, 28800

Orbit data source: Space-Track

SCOUT B DEB, 28800 is space debris in LEO originally from a launch on Tue, 10 Aug 1965 UTC launched from the Wallops Island (WLPIS). Debris objects in space refer to the collection of defunct objects orbiting the Earth. Examples of debris include non-operational satellites, rocket bodies, and fragments generated from explosions, collisions, or faulty payload assembly.

Loading next visibility...
Identifier
28800, 1965-063K
Orbit
LEO
Country
Flag of USUS
Related business
Manufacturer
Unknown
Mission
Spacecraft
Bus & Motor
Unknown
Mass
Unknown
Launch date (UTC)
1965-08-10 (61 years ago)
Launch vehicle
Unknown
Launch site
Wallops Island (WLPIS)
Object type
Payload
Rocket body
Debris
Shape & HBR
Unknown shape, 0.1 m
Radar Cross Section
Small (<0.1 m²)

Expand to show TLE details & history
Last TLE update: 2 weeks ago

TLE from 2 weeks ago
0 SCOUT B DEB
1 28800U 65063K   26107.11008683  .00001390  00000-0  72725-2 0  9999
2 28800  69.2099 231.4473 0742756 180.0280   1.6951 12.05140527945321
Epoch: 2026-04-17T02:38Z
TLE epoch observation values (Epoch: 2026-04-17T02:38:31.502Z)
Latitude
-1.97779°
Longitude
167.31535°
Altitude
1,063.623 km
Speed
7.587 km/s
True Right ascension
03h 28m 46s
True Declination
-1° 57' 59"
Sunlit
Object was in daylight at epoch
Visualization orbit readout
Latitude
Unknown
Longitude
Unknown
Altitude
Unknown
Speed
Unknown
Apparent Right ascension
Unknown
Apparent Declination
Unknown
Sunlit
N/A
Visualization observer readout
Local Sidereal Time
19:51:13
Azimuth
Unknown
Elevation
Unknown
Doppler factor
Unknown
Orbital elements
Apogee altitude
2,252.97 km
Perigee altitude
1,059.457 km
Semi-major axis
8,034.35 km
Eccentricity
0.07428
Inclination
69.2099°
RAAN
231.4473°
Arg. of periapsis
180.028°
True anomaly
1.97251°
Mean anomaly
1.6951°
Eccentric anomaly
1.83108°
Mean motion
3.01382 °/min
Orbital period
119.45 mins
BSTAR
0.0072725
Loading maneuver chart data...
Computing Atmospheric mass density...
Loading historical data...
Loading historical data...
Loading historical data...
Loading historical data...
Loading historical data...
Loading historical data...
Loading historical data...

Documentation

Showing up to 5 results
|